Theta_e
319 322 324 325 326 324 324 327 330 332 334 337 335 338 339 342 345 353 339 336 338 339 339 336 332 334 341 341 340 331 331 331 332 330 329 330 332 332 333 332 333 332 337 336 331 329 330 330 330
325 324 324 328 325 322 326 328 328 333 337 336 338 337 338 347 345 343 340 340 341 339 339 339 331 330 334 337 335 334 334 328 326 324 327 329 329 330 331 333 334 336 339 338 332 328 329 331 331
323 324 329 325 325 325 328 328 333 336 338 337 338 339 338 345 343 344 340 341 343 340 339 340 330 329 330 334 334 332 328 323 323 324 326 328 327 328 331 334 333 334 338 339 333 328 328 329 330
326 326 327 327 325 328 329 329 331 336 336 338 338 341 346 345 345 347 341 342 344 342 340 337 330 328 329 331 329 325 323 323 324 325 325 326 326 328 331 334 336 336 337 337 333 330 329 328 328
325 329 329 327 327 328 327 329 331 335 335 336 336 339 348 347 348 345 341 343 344 342 344 335 331 329 327 326 325 324 325 325 326 325 325 325 326 327 329 332 336 336 336 335 331 330 330 330 330
328 327 328 328 328 327 327 329 332 335 337 336 335 339 348 347 348 346 343 344 344 344 348 340 332 331 329 328 327 328 328 328 328 328 328 327 327 327 327 328 329 331 335 334 332 328 327 327 327
328 327 328 329 329 327 328 330 331 336 335 336 337 338 347 345 347 347 345 345 344 346 346 343 339 334 331 330 330 330 330 330 330 330 330 329 327 326 325 324 324 325 328 330 330 328 328 327 326
327 328 327 328 329 328 328 328 331 335 335 336 333 336 344 347 346 347 347 346 346 347 346 346 343 341 339 335 332 332 332 333 333 332 331 330 329 327 324 323 322 323 325 326 327 328 327 327 328
326 328 328 327 328 330 328 328 329 331 333 333 332 337 343 345 345 347 347 347 347 346 346 346 346 344 343 342 338 334 334 334 334 334 334 333 337 334 334 334 333 322 324 325 326 326 326 326 327
326 329 328 327 328 329 328 328 329 329 330 333 337 339 343 343 344 345 346 345 345 345 345 346 346 346 345 343 343 341 341 339 339 339 338 340 341 339 339 336 326 323 323 324 324 324 324 327 336
327 328 328 326 326 328 328 328 328 328 329 330 333 338 343 344 343 343 343 343 343 344 344 345 346 346 345 343 345 342 343 342 342 341 342 341 340 339 335 337 335 334 334 335 335 335 335 337 336
327 327 326 326 326 327 327 327 328 328 328 328 330 335 341 343 343 342 341 342 343 344 344 344 345 347 347 344 345 345 344 343 343 341 341 341 340 339 340 337 337 338 336 337 336 336 337 338 338
326 327 326 326 326 325 326 327 327 328 328 328 328 327 337 339 339 339 340 341 342 345 345 344 343 344 343 344 342 342 341 342 342 342 341 340 339 339 339 339 339 338 338 338 338 338 338 338 338
326 326 326 326 326 326 325 325 326 327 327 328 327 328 330 335 336 336 339 340 341 344 345 344 343 342 342 341 342 342 342 341 341 340 340 341 341 343 341 341 340 340 340 340 340 339 339 338 339
324 325 325 326 326 327 326 327 327 326 327 327 328 328 329 331 333 334 337 339 340 343 345 345 343 342 342 341 342 341 340 340 339 339 341 342 342 343 340 340 340 339 340 339 339 338 338 337 334
326 326 326 325 326 326 326 327 327 327 326 326 328 328 329 329 330 332 335 338 339 343 345 346 343 343 342 341 341 340 340 340 339 341 342 341 342 342 341 338 338 338 337 336 334 330 325 322 322
327 327 325 325 327 327 327 326 326 327 327 327 327 327 328 329 330 331 334 337 338 342 345 347 344 344 343 343 341 341 341 343 343 341 341 341 340 339 338 335 332 329 326 324 323 321 322 322 322
324 325 326 325 326 327 327 327 326 327 327 327 327 328 328 328 329 330 334 337 338 341 345 347 346 345 344 342 342 343 343 342 340 339 336 334 332 329 328 326 324 321 320 321 323 323 322 321 320
324 324 324 325 325 326 327 327 327 326 327 328 328 328 328 329 329 329 333 337 339 340 345 347 346 345 344 343 344 342 340 337 336 334 331 328 324 321 319 319 320 319 321 323 321 319 317 316 315
325 325 325 324 324 325 326 327 327 327 327 327 327 328 328 328 329 329 333 339 341 341 344 346 346 345 344 344 342 340 336 334 331 328 324 321 320 319 318 318 319 319 319 318 316 313 311 310 310
325 326 326 324 324 325 325 326 326 326 326 327 327 327 328 328 328 329 330 340 341 343 345 346 345 344 342 341 340 336 333 330 326 323 321 318 318 317 318 317 317 315 313 313 312 310 309 308 308
323 323 324 325 324 326 325 328 326 325 325 326 327 327 328 328 327 328 330 337 340 341 344 347 345 343 344 341 339 332 331 327 324 321 317 317 317 317 316 314 314 312 310 310 308 308 308 307 307
321 321 323 323 324 325 326 326 324 324 324 325 326 328 329 329 328 328 329 333 339 340 343 345 345 345 345 342 336 333 330 326 322 318 317 316 316 315 314 313 312 311 309 309 308 308 308 307 307
322 323 323 324 324 328 327 324 326 324 325 325 325 326 326 329 329 329 329 330 337 340 343 343 345 344 343 339 335 331 328 323 319 316 316 316 315 313 312 310 310 309 309 308 308 308 307 307 307
323 325 327 327 330 332 324 324 327 324 324 324 324 326 328 328 329 330 331 333 336 339 342 341 342 340 337 334 331 328 324 320 316 316 316 315 313 312 312 310 310 309 309 308 308 307 307 307 307
321 324 331 330 329 326 324 325 326 324 324 324 324 325 326 327 329 330 332 333 336 338 340 337 336 335 329 326 323 320 319 315 315 315 314 312 312 311 312 309 308 307 307 306 306 306 306 306 306
321 324 324 325 325 326 324 324 324 324 325 325 325 326 327 327 328 330 332 333 335 338 336 331 328 320 318 316 315 314 313 313 314 313 312 310 310 309 308 306 306 306 306 306 306 306 306 306 306
320 321 326 327 330 328 323 322 324 322 322 326 326 325 328 327 328 329 331 333 335 335 333 328 321 317 315 313 312 312 313 313 312 311 310 309 307 305 307 307 306 305 305 305 304 304 305 305 305
320 323 323 324 328 332 329 326 324 324 325 325 327 326 327 327 328 330 332 333 333 333 330 324 322 317 315 311 312 312 312 311 310 308 308 308 307 306 305 304 304 304 303 303 303 304 303 303 304
321 323 324 331 332 331 331 330 325 324 324 326 327 326 327 328 329 331 332 333 332 330 325 320 316 313 312 311 311 310 309 308 307 307 307 307 306 304 304 303 303 303 302 303 303 303 303 303 303
Wind_Speed
8 8 10 8 7 8 15 6 7 8 7 10 8 5 13 17 13 6 15 11 20 22 22 21 20 19 20 19 19 19 17 16 15 13 13 14 13 11 10 9 9 9 9 9 9 9 10 10 10
10 8 10 8 9 11 7 11 11 9 11 4 9 4 2 15 13 14 12 16 21 23 23 20 22 20 20 20 20 19 18 16 15 14 14 14 12 11 10 9 9 9 8 8 8 8 9 8 8
8 10 10 6 13 10 8 10 10 10 7 9 7 5 3 10 12 9 17 19 21 22 23 22 24 22 21 22 21 20 18 17 16 15 15 14 12 11 9 9 8 8 8 6 6 6 7 6 4
9 10 7 10 14 7 9 5 6 11 7 7 4 10 7 9 7 11 18 21 21 21 22 24 25 23 22 23 22 20 19 18 16 15 14 13 11 10 9 8 8 7 7 4 4 4 4 3 2
13 9 13 15 1 3 1 3 11 11 11 7 6 10 8 8 13 16 19 20 20 21 20 26 26 25 23 23 22 20 19 18 16 15 14 12 10 9 9 8 8 7 6 4 3 3 2 1 1
10 6 12 10 8 5 4 4 8 8 9 6 3 6 9 11 13 16 18 18 19 20 19 24 26 25 23 23 22 21 19 18 16 14 12 10 9 8 7 6 6 6 5 5 2 2 2 2 3
13 10 16 3 6 8 8 6 10 10 10 7 1 7 9 13 14 16 17 18 19 18 19 22 23 24 23 21 21 20 19 17 16 14 12 10 8 7 7 6 6 5 5 5 4 3 2 3 4
7 9 16 7 7 7 7 7 6 8 10 8 3 3 13 16 17 17 18 18 18 18 20 20 20 20 20 20 20 19 18 16 13 13 12 10 9 7 6 5 5 6 6 5 4 4 3 4 4
10 8 11 7 5 8 5 9 9 1 3 8 8 9 15 22 20 20 20 19 19 18 20 20 20 20 18 17 18 19 17 16 14 12 11 9 8 6 7 8 8 5 6 6 6 5 5 6 6
10 10 6 9 0 2 2 8 8 8 11 10 7 5 17 21 21 21 21 21 21 22 22 21 22 21 20 18 17 16 14 13 12 11 11 10 9 7 5 7 8 7 6 6 6 6 6 5 10
9 14 8 2 4 4 5 7 9 11 14 13 15 14 15 17 20 19 20 21 22 22 22 22 23 22 22 20 18 18 19 16 15 13 13 10 8 8 8 9 7 7 4 7 8 7 7 8 5
12 13 10 6 5 8 10 12 8 16 14 3 6 18 16 17 16 19 19 20 22 23 22 22 23 21 23 17 17 15 14 15 15 14 13 10 10 9 10 8 5 5 7 4 6 5 5 5 7
13 14 8 10 7 11 12 11 14 14 11 4 7 5 14 16 18 19 19 19 21 22 23 24 24 23 23 16 17 17 16 16 14 12 13 13 11 9 9 7 6 6 5 5 4 5 4 6 8
8 8 13 11 14 13 14 17 17 19 15 14 10 12 14 17 18 18 20 21 22 22 23 24 23 22 23 20 18 17 16 14 15 14 14 14 9 8 8 6 6 5 5 4 4 6 7 7 8
13 14 15 16 15 14 11 19 21 21 17 20 16 17 16 18 21 20 22 23 23 22 22 24 24 22 22 20 18 16 15 15 15 13 11 13 9 7 6 5 4 3 3 3 5 6 6 7 8
14 17 17 19 22 19 14 21 17 19 18 19 19 18 19 19 20 23 23 24 24 24 24 23 24 24 23 21 19 17 17 15 14 13 11 9 8 7 6 4 4 3 2 1 3 4 8 9 9
19 16 21 20 10 12 15 21 18 6 9 14 16 18 21 20 21 24 23 24 24 25 25 25 25 25 24 22 20 17 15 13 12 11 8 8 8 8 6 5 4 2 1 1 4 5 7 9 11
21 21 22 20 14 17 18 21 22 12 10 13 13 15 18 21 22 24 22 23 23 25 25 25 25 25 25 23 19 19 17 15 12 12 11 10 9 9 7 5 3 1 1 1 3 5 7 8 10
24 24 24 18 18 22 19 20 21 19 15 17 16 16 16 17 18 23 28 20 23 23 25 27 27 27 26 27 23 23 20 17 15 13 13 12 10 8 7 5 4 3 2 1 1 4 6 7 8
26 27 26 22 20 18 18 23 19 19 20 21 21 19 19 18 19 20 21 24 24 25 27 29 28 29 27 27 24 21 21 19 17 15 15 13 11 10 8 7 5 3 3 1 2 4 6 6 8
26 28 22 25 20 24 22 28 24 21 22 23 25 21 22 21 21 20 22 27 27 27 30 32 30 33 28 28 24 22 20 19 18 17 15 13 10 9 8 8 6 4 2 2 2 4 6 9 9
28 26 24 26 21 23 18 24 25 24 25 27 26 26 21 25 22 20 22 26 30 31 29 29 28 34 31 31 28 28 25 22 21 20 17 14 12 10 8 7 5 4 3 1 2 4 5 6 10
31 21 25 25 23 21 30 18 19 22 24 23 23 20 23 22 22 21 22 30 32 31 31 31 30 34 31 33 31 29 23 21 21 19 18 15 13 10 8 6 5 3 1 1 3 4 6 8 9
24 23 17 19 16 17 31 20 29 22 26 23 25 24 23 21 21 22 23 29 32 30 29 29 31 33 31 34 30 30 26 23 22 20 19 16 14 11 8 6 5 3 1 3 5 6 8 10 11
25 22 16 17 16 22 23 19 34 2 11 17 18 17 18 18 19 19 20 20 29 33 28 26 31 30 30 29 28 28 25 24 23 22 19 18 15 13 10 7 5 4 3 5 7 8 10 11 13
29 27 14 21 20 21 25 26 34 25 25 20 14 7 12 18 16 18 19 20 29 31 27 27 26 30 29 29 30 26 25 24 22 20 18 16 13 11 9 6 4 3 4 5 6 8 11 12 12
26 27 33 21 17 12 18 24 29 24 20 12 14 15 17 21 18 20 18 20 27 29 26 28 29 28 31 31 31 30 28 24 21 18 17 14 12 10 8 5 3 3 3 4 6 10 12 12 13
28 19 22 13 20 28 28 29 25 22 28 21 19 20 16 19 17 14 15 18 24 25 23 27 30 31 32 31 33 30 24 21 20 19 17 15 12 9 7 5 3 2 3 6 8 11 11 12 13
21 25 24 22 18 18 21 22 25 28 26 21 20 17 16 16 17 13 15 20 24 24 25 26 30 32 33 32 29 28 25 23 21 18 16 13 11 9 7 4 2 2 4 6 9 9 10 10 11
32 27 29 13 29 24 19 23 22 19 11 6 13 15 14 15 13 14 16 21 28 28 29 30 29 33 33 32 30 28 26 24 21 18 16 13 11 7 5 4 2 2 3 6 7 7 8 10 11
Wind_Direction
266 265 258 242 235 239 237 140 64 134 164 66 83 348 29 34 6 66 122 128 139 144 151 152 154 154 160 163 162 159 154 152 155 154 149 145 141 137 132 124 119 117 116 114 107 102 102 100 95
268 257 242 260 251 211 169 110 203 117 72 151 100 145 66 73 71 116 118 133 145 149 152 156 158 157 161 164 164 161 159 160 160 156 149 148 148 144 136 128 126 123 120 117 114 113 114 111 109
274 255 265 231 237 270 123 178 109 105 143 158 155 347 30 90 128 112 125 147 149 153 156 163 162 160 159 162 164 165 165 163 161 155 153 155 154 151 144 138 131 129 131 124 120 118 115 113 105
260 217 239 247 224 60 66 130 88 152 161 190 104 121 86 30 109 124 142 149 152 157 160 169 166 166 163 165 166 168 168 163 160 156 156 158 157 156 151 145 130 124 131 146 137 133 129 126 110
235 264 256 238 171 87 113 60 184 172 157 173 196 119 100 105 117 132 146 153 155 159 159 170 170 171 170 170 171 171 170 165 163 162 160 159 160 159 157 153 150 152 159 178 154 161 180 202 238
256 262 252 216 155 175 171 174 212 185 138 130 203 126 109 133 140 143 150 155 158 159 162 167 172 175 176 176 176 174 173 171 168 166 162 158 157 155 155 160 165 170 175 171 187 187 234 265 284
262 265 274 348 137 187 147 184 204 189 165 155 359 204 115 156 140 148 150 154 158 159 163 169 172 178 180 183 181 180 178 177 173 168 164 161 160 160 164 173 175 175 180 195 212 216 236 260 276
293 292 273 249 171 162 148 202 246 234 170 81 244 197 162 130 149 146 148 152 157 162 166 173 175 178 180 186 187 185 182 180 177 173 170 169 169 171 174 182 188 189 191 198 214 238 254 260 274
261 257 252 226 246 123 151 213 196 268 247 190 176 37 100 145 152 151 151 156 161 169 173 176 180 181 184 185 190 188 187 184 182 181 182 178 178 177 211 195 209 218 209 213 219 233 257 278 261
253 260 329 15 287 111 179 252 183 201 227 182 159 129 131 155 164 166 167 168 171 174 178 180 183 184 185 191 190 187 190 190 187 191 198 195 204 199 184 188 225 221 222 230 238 251 266 262 260
244 260 24 229 285 263 227 236 226 235 219 221 195 168 160 171 178 182 184 176 178 179 180 184 185 186 189 197 184 194 193 198 200 203 192 209 205 216 211 209 210 209 221 231 229 241 251 248 289
243 248 287 282 195 248 245 250 246 247 255 345 212 153 173 188 193 192 192 180 179 180 183 184 188 186 188 187 182 189 195 199 197 207 204 201 210 211 231 224 185 205 220 221 234 236 243 271 276
236 264 252 262 225 244 259 256 252 258 244 247 237 240 185 201 207 201 195 189 184 181 182 186 187 186 185 185 192 198 199 203 206 204 203 211 215 204 194 195 206 200 216 223 253 283 277 280 282
291 271 263 251 249 231 245 252 243 244 248 238 233 216 220 218 216 208 201 196 189 185 185 186 188 186 184 188 191 195 197 199 201 207 206 213 208 200 209 206 220 233 252 283 275 283 283 286 283
256 261 251 237 245 244 241 247 241 246 226 233 225 220 223 219 226 221 208 203 194 189 187 185 186 185 187 189 186 188 196 195 201 203 193 207 210 200 215 202 192 199 251 265 279 286 288 301 295
250 248 255 248 221 223 246 259 257 213 211 235 227 234 227 225 227 225 212 212 195 190 189 185 186 187 188 189 190 190 189 194 196 197 200 203 187 181 170 164 154 173 163 263 311 319 318 311 308
234 252 246 246 199 225 212 250 262 140 229 244 239 237 239 230 229 229 216 215 201 194 189 187 187 186 185 188 185 185 176 185 178 171 164 158 169 169 166 154 141 137 104 337 328 320 318 316 311
237 239 241 257 238 215 221 237 268 187 229 241 245 247 248 237 231 218 230 210 212 198 192 190 188 187 182 174 175 172 167 161 158 159 159 149 146 145 146 139 131 123 231 323 348 327 313 310 312
258 260 259 250 249 237 230 245 259 249 228 228 239 252 243 250 255 234 210 204 216 204 193 192 188 185 175 167 161 160 167 166 164 161 154 155 152 149 148 148 142 156 134 91 343 311 320 318 336
246 255 257 267 269 275 248 258 260 254 249 257 257 237 248 240 234 236 209 200 212 205 199 194 191 176 174 171 175 175 168 167 165 163 160 160 159 155 152 155 156 144 147 118 9 358 345 330 344
245 243 254 258 260 263 261 262 258 250 260 256 256 247 249 247 238 222 224 192 205 211 201 196 189 174 172 172 169 168 161 162 164 166 162 161 158 149 154 151 139 124 116 102 31 359 354 333 328
241 242 250 259 259 260 258 268 248 244 237 238 236 242 243 242 245 234 213 196 205 209 201 194 186 177 184 179 174 168 171 173 176 171 164 158 156 154 149 136 122 113 117 97 356 351 338 321 317
247 246 253 252 254 263 261 260 260 252 255 249 257 222 231 244 240 237 213 203 206 207 197 194 192 182 185 179 174 175 180 181 172 168 161 158 157 157 155 147 140 139 149 338 318 312 315 313 311
247 246 245 257 244 248 253 255 273 259 254 234 237 247 243 228 235 237 219 210 197 201 192 189 193 184 181 178 182 181 179 170 169 166 165 162 163 163 160 157 169 188 239 284 296 301 304 301 299
216 230 237 232 234 240 251 245 254 260 253 258 248 215 242 233 225 233 224 209 190 192 184 187 194 176 181 182 181 180 176 170 170 167 168 166 168 169 167 175 191 221 259 283 291 299 298 292 291
223 218 220 222 232 249 248 237 253 253 264 257 224 261 244 252 221 226 225 215 191 187 178 185 191 178 178 177 171 170 163 167 169 173 166 169 166 166 161 184 210 245 273 283 297 300 293 294 294
237 221 226 245 278 273 263 257 264 253 226 216 219 238 231 242 241 213 221 221 192 179 176 183 189 173 168 163 161 160 169 169 169 160 158 157 155 161 166 183 212 243 270 298 312 299 294 293 296
219 236 229 224 242 249 258 256 257 241 246 213 211 228 231 237 239 213 210 213 184 179 178 183 183 168 163 159 160 163 167 162 158 156 158 157 156 156 166 179 195 250 299 311 300 290 294 297 299
212 226 237 233 218 238 247 260 260 251 251 246 205 221 227 235 236 202 204 195 187 176 183 185 183 168 165 156 159 158 158 157 155 156 156 154 154 163 174 187 210 274 305 301 290 294 299 303 305
219 219 230 216 219 228 250 273 261 286 275 214 218 219 215 231 227 196 198 185 179 178 182 182 179 166 161 155 158 152 158 154 156 157 157 157 159 163 179 193 212 285 297 286 296 304 307 308 308